Regional Weather Roundup
Issued by NWS Midland/Odessa, TX

Home | Current Version | Previous Version | Text Only | Print | Product List | Glossary On
Versions: 1 2 3 4 5 6 7 8 9 10 11 12 13 14 15 16 17 18 19 20 21 22 23 24 25 26 27 28 29 30 31 32 33 34 35 36 37 38 39 40 41 42 43 44 45 46 47 48 49 50
000
ASUS44 KMAF 221310
RWRMAF
MIDLAND AREA WEATHER ROUNDUP
NATIONAL WEATHER SERVICE MIDLAND TX
800 AM CDT MON SEP 22 2014

...IN SOUTHWEST TEXAS AND SOUTHEAST NEW MEXICO...

CITY           SKY/WX    TMP DP  RH WIND       PRES   REMARKS
ALPINE         CLOUDY    67  61  82 E3        30.31S
ANDREWS        CLOUDY    67  66  98 E8        30.25S FOG
ARTESIA        NOT AVBL
BIG SPRING     CLOUDY    72  69  91 NE10      30.24S
CARLSBAD       CLOUDY    69  32  25 SE10      30.22R
DRYDEN           N/A     77  70  79 E8        30.16R
FORT STOCKTON  CLOUDY    68  68 100 E3        30.21R
GUAD PASS      FOG       62  62 100 E20         N/A  VSB 1/4
HOBBS          CLOUDY    66  66 100 NE9       30.27R FOG
MARFA          CLOUDY    64  63  94 E5        30.30R
MIDLAND AIRPK  CLOUDY    70  70 100 E5        30.23S FOG
MIDLAND INTL   CLOUDY    69  68  96 E8        30.22R FOG
ODESSA         CLOUDY    69  67  93 E7        30.23R FOG
PECOS          DRIZZLE   68  66  94 E3        30.20R
PRESIDIO       CLOUDY    74  64  71 NE13G18   30.14S
SEMINOLE       CLOUDY    66  65  97 CALM      30.27S FOG
SNYDER         CLOUDY    68  66  94 NE12      30.24S
WINK           CLOUDY    70  69  97 CALM      30.20R
$$
...OTHER STATIONS IN TEXAS...

CITY           SKY/WX    TMP DP  RH WIND       PRES   REMARKS
ABILENE        PTCLDY    70  66  87 E12       30.21R
AMARILLO       PTCLDY    58  54  86 E9        30.32R
AUSTIN         MOCLDY    68  66  93 CALM      30.11R
BROWNSVILLE    PTCLDY    77  75  93 CALM      30.00R
CORPUS CHRISTI MOCLDY    75  73  93 N8        30.04R
DALLAS FTW     MOCLDY    75  54  47 NE14      30.18R
DEL RIO        CLEAR     74  70  87 NE7       30.12R
EL PASO        LGT RAIN  65  63  93 NW9       30.19R
HOUSTON INT    MOSUNNY   76  70  82 VRB3      30.07R
LUBBOCK        CLOUDY    64  62  93 E14       30.28R
SAN ANGELO     MOCLDY    70  67  90 CALM      30.19R
SAN ANTONIO    PTCLDY    70  65  84 NW7       30.12R
WACO           CLEAR     73  69  87 NE8       30.14R
WICHITA FALLS  NOT AVBL
$$
...OTHER LOCATIONS IN NEW MEXICO...

CITY           SKY/WX    TMP DP  RH WIND       PRES   REMARKS
ALAMAGORDO     CLOUDY    68  63  83 N6        30.23R
ALBUQUERQUE    CLOUDY    66  56  70 S7        30.30R
CANNON AFB     FOG       61  59  94 E9        30.32S VSB 1/2
CLOVIS           N/A     61  59  94 E9        30.35S VSB 1/2
HOLLOMAN AFB   CLOUDY    67  64  89 N2        30.21R
ROSWELL        CLOUDY    66  64  93 NE6       30.24S
RUIDOSO        LGT RAIN  57  57 100 SE6       30.41S VSB 1
SANTA FE       CLOUDY    60  55  83 SE13      30.36S
TRUTH OR CONSE CLOUDY    67  62  84 CALM      30.25S
TUCUMCARI      CLOUDY    63  60  90 E6        30.30S
$$


USA.gov is the U.S. government's official web portal to all federal, state and local government web resources and services.